Location: Lafig�re
(44.4503°N, 4.0357°E)
Time: 15:18:09
(UTC+00:00)

Vanguard 2 Rocket - Pass Details

Date: 30 January 2021
Orbit: 554 x 3325 km, 32.9° (Epoch: 06 March)

Event Time Altitude Azimuth Distance (km) Brightness Sun altitude
Rises 18:34:56 0° 272° (W) 5,518 12.5 -18.7°
Reaches altitude 10° 18:40:39 10° 256° (WSW) 3,897 11.3 -19.8°
Maximum altitude 18:46:09 17° 221° (SW) 2,774 9.9 -20.7°
Drops below altitude 10° 18:50:19 10° 183° (S) 2,788 9.5 -21.5°
Sets 18:53:27 0° 161° (SSE) 3,390 9.7 -22.0°
